Regional Weather Roundup
Issued by NWS Jackson, KY

Home | Current Version | Previous Version | Text Only | Print | Product List | Glossary On
Versions: 1 2 3 4 5 6 7 8 9 10 11 12 13 14 15 16 17 18 19 20 21 22 23 24 25 26 27
000
ASUS43 KJKL 072310
RWRJKL

EAST KENTUCKY HOURLY WEATHER ROUNDUP
NATIONAL WEATHER SERVICE JACKSON KY
600 PM EST WED DEC 07 2016

NOTE: "FAIR" INDICATES FEW OR NO CLOUDS BELOW 12,000 FEET WITH
NO SIGNIFICANT WEATHER AND/OR OBSTRUCTIONS TO VISIBILITY.

* THESE REPORTS ARE NOT UNDER NWS QUALITY CONTROL AND MAY NOT
  REPORT WEATHER SUCH AS PRECIPITATION AND FOG.

KYZ079-080-083-085-087-088-110-112-115-119-120-080000
...EASTERN KENTUCKY...

CITY           SKY/WX    TMP DP  RH WIND       PRES   REMARKS
JACKSON        CLEAR     43  23  45 CALM      30.10R
LONDON         CLOUDY    42  28  57 CALM      30.11R
SOMERSET*      CLOUDY    41  27  56 CALM      30.14R
MONTICELLO*    PTCLDY    34  29  82 N9        30.14S WCI  27
WILLIAMSBURG*  CLOUDY    39  32  75 CALM      30.12R
MIDDLESBORO*   CLOUDY    43  33  68 N3        30.11R
HARLAN APT*    MOCLDY    39  32  75 CALM      30.09S
PIKE CO APT*     N/A     38  29  68 W5        30.10R WCI  35
BIG SANDY APT* CLEAR     42  30  62 SW5       30.10S
MOREHEAD APT*  CLOUDY    41  23  48 NW5       30.14R
ASHLAND*       CLOUDY    43  30  61 N5        30.11R
$$

KYZ035-036-041-042-044-050-067-078-099-080000
...CENTRAL KENTUCKY...

CITY           SKY/WX    TMP DP  RH WIND       PRES   REMARKS
MT STERLING*   CLOUDY    39  27  60 N3        30.14S
FLEMING/MASON* CLOUDY    39  24  55 NW3       30.14S
DANVILLE*      CLOUDY    34  25  69 NW3       30.14R
LEXINGTON      CLOUDY    39  26  59 NW5       30.14R
FRANKFORT      CLOUDY    40  24  53 NW3       30.14R
LOUISVILLE     MOCLDY    40  18  41 NW9       30.16S WCI  34
LEBANON*         N/A     37  27  65 NW3       30.15R
GLASGOW*       PTCLDY    37  28  71 CALM      30.15R
BOWLING GREEN  CLEAR     44  22  41 NW5       30.16R
$$

KYZ091>093-OHZ055-061-077-WVZ005-015-034-035-042-080000
...SOUTHERN OHIO/WEST VIRGINIA...

CITY           SKY/WX    TMP DP  RH WIND       PRES   REMARKS
COVINGTON      CLOUDY    35  23  61 SW3       30.14R
COLUMBUS       CLOUDY    36  25  64 SW5       30.10S WCI  32
DAYTON         CLOUDY    33  23  66 SW9       30.11S WCI  25
WILMINGTON     CLOUDY    35  23  61 W5        30.12R WCI  31
HUNTINGTON     CLEAR     44  18  35 CALM      30.11R
CHARLESTON     PTCLDY    41  26  55 CALM      30.09S
PINEVILLE*     CLEAR     34  30  85 MISG      30.12S
BECKLEY        CLEAR     37  16  42 CALM      30.05S
BLUEFIELD      CLOUDY    35  28  75 W5        30.05R WCI  31
LOGAN CO APT*    N/A     41  25  52 CALM      30.07S
$$

VAZ002-007-008-TNZ017-027-036-066-071-080000
...SOUTHWEST VIRGINIA/EAST TENNESSEE...

CITY           SKY/WX    TMP DP  RH WIND       PRES   REMARKS
WISE*          MOCLDY    36  27  69 N3        30.07S
JONESVILLE*      N/A     45  34  65 CALM      30.10R
ABINGDON*      PTCLDY    46  34  64 CALM      30.04R
BRISTOL        PTCLDY    45  30  55 N6        30.06R
MORRISTOWN*    CLEAR     50  36  57 CALM      30.05R
SEVIERVILLE*   MOCLDY    48  37  66 CALM      30.05S
KNOXVILLE      CLOUDY    50  39  66 N7        30.06R
OAK RIDGE      CLOUDY    47  36  65 CALM      30.10R
CROSSVILLE     MOCLDY    39  33  79 CALM      30.10R
NASHVILLE      MOCLDY    44  30  57 N7        30.16R
$$

...KEY TO REMARKS...
VSB - VISIBILITY IN MILES
WCI - WIND CHILL INDEX
HX  - HEAT INDEX

$$




USA.gov is the U.S. government's official web portal to all federal, state and local government web resources and services.